Location: Asheville, NC
(35.6000°N, 82.5500°W)
Time: 07:45:52
(UTC-05:00)

ISS - Visible Passes

Search period start: 18 December 2017 00:00
Search period end: 28 December 2017 00:00
Orbit: 402 x 406 km, 51.6° (Epoch: 18 December)

Date Brightness Start Highest point End Pass type
(mag) Time Alt. Az. Time Alt. Az. Time Alt. Az.
18 Dec -0.4 18:46:03 10° WSW 18:47:19 12° SW 18:48:36 10° SSW visible
19 Dec -1.1 17:52:32 10° WNW 17:55:15 24° SW 17:57:57 10° S visible
24 Dec -1.0 07:01:12 10° S 07:03:52 24° SE 07:06:34 10° ENE visible
25 Dec -0.3 06:10:33 10° SSE 06:11:44 12° SE 06:12:55 10° ESE visible
26 Dec -3.5 06:52:15 10° SW 06:55:29 69° SE 06:58:44 10° NE visible
27 Dec -1.9 06:00:19 10° SSW 06:03:13 30° SE 06:06:09 10° ENE visible
